TimeEDT,TemperatureF,Dew PointF,Humidity,Sea Level PressureIn,VisibilityMPH,Wind Direction,Wind SpeedMPH,Gust SpeedMPH,PrecipitationIn,Events,Conditions,WindDirDegrees,DateUTC
12:00 AM,62.1,59.0,90,29.47,-9999.0,North,5.8,-,N/A,,Overcast,360,2013-06-14 04:00:00
12:46 AM,62.6,57.2,82,29.49,-9999.0,NNE,9.2,19.6,N/A,,Overcast,20,2013-06-14 04:46:00
1:00 AM,61.0,57.0,87,29.50,-9999.0,North,8.1,19.6,N/A,,Overcast,360,2013-06-14 05:00:00
1:55 AM,60.8,55.4,82,29.55,-9999.0,NNE,8.1,-,N/A,Rain,Light Rain,20,2013-06-14 05:55:00
2:07 AM,59.0,55.4,88,29.55,-9999.0,North,10.4,17.3,N/A,Rain,Light Rain,360,2013-06-14 06:07:00
2:20 AM,59.0,55.4,88,29.56,-9999.0,Variable,5.8,-,N/A,,Overcast,0,2013-06-14 06:20:00
2:42 AM,57.2,53.6,88,29.56,-9999.0,NNE,10.4,19.6,N/A,,Overcast,20,2013-06-14 06:42:00
2:50 AM,57.2,53.6,88,29.56,-9999.0,Variable,6.9,19.6,N/A,,Overcast,0,2013-06-14 06:50:00
3:00 AM,59.0,53.1,81,29.55,-9999.0,NNE,10.4,18.4,N/A,,Overcast,20,2013-06-14 07:00:00
3:15 AM,59.0,53.6,82,29.57,-9999.0,Variable,6.9,19.6,N/A,,Overcast,0,2013-06-14 07:15:00
4:00 AM,59.0,53.1,81,29.59,-9999.0,Variable,6.9,-,N/A,,Overcast,0,2013-06-14 08:00:00
4:19 AM,59.0,53.6,82,29.61,-9999.0,NNW,5.8,-,N/A,,Overcast,340,2013-06-14 08:19:00
5:00 AM,59.0,53.1,81,29.62,-9999.0,NNW,9.2,-,N/A,,Overcast,340,2013-06-14 09:00:00
5:19 AM,57.2,53.6,88,29.63,-9999.0,Variable,5.8,-,N/A,,Overcast,0,2013-06-14 09:19:00
6:00 AM,57.0,53.1,87,29.65,-9999.0,North,-9999.0,-,N/A,,Overcast,0,2013-06-14 10:00:00
6:35 AM,57.2,53.6,88,29.67,-9999.0,North,-9999.0,-,N/A,Rain,Light Rain,0,2013-06-14 10:35:00
7:11 AM,57.2,53.6,88,29.68,-9999.0,North,-9999.0,-,N/A,Rain,Light Rain,0,2013-06-14 11:11:00
8:00 AM,57.9,53.1,84,29.70,-9999.0,NNW,5.8,-,N/A,,Overcast,330,2013-06-14 12:00:00
9:00 AM,60.8,53.6,77,29.74,-9999.0,NNW,4.6,-,N/A,,Overcast,330,2013-06-14 13:00:00
9:06 AM,61.0,53.1,75,29.74,-9999.0,Variable,3.5,-,N/A,,Overcast,0,2013-06-14 13:06:00
10:00 AM,62.1,54.0,75,29.77,-9999.0,NW,5.8,-,N/A,,Overcast,320,2013-06-14 14:00:00
11:00 AM,68.0,53.1,59,29.80,-9999.0,NNW,6.9,-,N/A,,Overcast,330,2013-06-14 15:00:00
12:00 PM,66.9,54.0,63,29.81,-9999.0,NW,6.9,-,N/A,,Mostly Cloudy,320,2013-06-14 16:00:00
1:00 PM,72.0,52.0,49,29.81,-9999.0,WNW,10.4,-,N/A,,Scattered Clouds,290,2013-06-14 17:00:00
2:00 PM,75.0,51.1,43,29.82,-9999.0,NW,6.9,-,N/A,,Mostly Cloudy,310,2013-06-14 18:00:00
3:00 PM,77.0,53.1,43,29.81,-9999.0,Calm,Calm,-,N/A,,Mostly Cloudy,0,2013-06-14 19:00:00
4:00 PM,84.0,54.0,35,29.80,-9999.0,Variable,6.9,-,N/A,,Partly Cloudy,0,2013-06-14 20:00:00
5:00 PM,72.0,61.0,68,29.81,-9999.0,West,3.5,-,N/A,Rain,Light Rain,270,2013-06-14 21:00:00
5:12 PM,77.0,60.8,57,29.81,-9999.0,West,4.6,-,N/A,Thunderstorm,Thunderstorm,260,2013-06-14 21:12:00
5:29 PM,80.6,60.8,51,29.82,-9999.0,WSW,5.8,-,N/A,,Overcast,240,2013-06-14 21:29:00
6:00 PM,79.0,59.0,50,29.82,-9999.0,WSW,8.1,-,N/A,,Mostly Cloudy,240,2013-06-14 22:00:00
7:00 PM,70.0,62.1,76,29.83,-9999.0,Calm,Calm,-,N/A,,Mostly Cloudy,0,2013-06-14 23:00:00
8:00 PM,71.1,61.0,70,29.85,-9999.0,WNW,8.1,-,N/A,,Overcast,290,2013-06-15 00:00:00
9:00 PM,66.0,59.0,78,29.85,-9999.0,Calm,Calm,-,N/A,,Mostly Cloudy,0,2013-06-15 01:00:00
10:00 PM,63.0,57.9,84,29.88,-9999.0,Calm,Calm,-,N/A,,Partly Cloudy,0,2013-06-15 02:00:00
11:00 PM,61.0,57.0,87,29.90,-9999.0,Calm,Calm,-,N/A,,Clear,0,2013-06-15 03:00:00